Regional Weather Roundup
Issued by NWS Charleston, SC

Current Version | Previous Version | Graphics & Text | Print | Product List | Glossary On
Versions: 1 2 3 4 5 6 7 8 9 10 11 12 13 14 15 16 17 18 19 20 21 22 23 24 25 26 27 28 29 30 31 32 33 34 35 36 37 38 39 40 41 42 43 44 45 46 47 48 49 50
000 ASUS42 KCHS 301110 RWRCHS REGIONAL WEATHER ROUNDUP NATIONAL WEATHER SERVICE CHARLESTON SC 700 AM EDT THU OCT 30 2014 NOTE: "FAIR" INDICATES FEW OR NO CLOUDS BELOW 12,000 FEET WITH NO SIGNIFICANT WEATHER AND/OR OBSTRUCTIONS TO VISIBILITY. NOT ALL STATIONS ARE QUALITY CONTROLLED BY THE NATIONAL WEATHER SERVICE. USE DATA WITH CAUTION...ESPECIALLY DEWPOINT OBSERVATIONS. SCZ027-030-031-034>040-042>050-301200- ...SOUTH CAROLINA... CITY SKY/WX TMP DP RH WIND PRES REMARKS N CHARLESTON CLOUDY 63 58 83 N13 29.97R WATERFRONT PRK N/A 68 N/A N/A N10G16 N/A FORT JOHNSON NOT AVBL JOHNS ISLAND CLOUDY 66 66 100 N9 29.96R PINOPOLIS NOT AVBL MONCKS CORNER CLOUDY 59 57 94 NE5 29.98S SUMMERVILLE PTSUNNY 59 59 100 N6 29.99R BEAUFORT MCAS N/A N/A N/A N/A MISG N/A BEAUFORT ARPT FAIR 64 64 100 NW7 29.95S HILTON HEAD IS CLEAR 66 64 94 W6 29.97R GEORGETOWN NOT AVBL WALTERBORO CLOUDY 61 N/A N/A NE7 29.98R ORANGEBURG PTCLDY 58 51 78 NE5 29.99R BARNWELL CLOUDY 59 52 77 NE7 30.00R AIKEN FAIR 54 48 82 N7 30.04R MANNING FAIR 57 50 77 CALM 29.99R KINGSTREE NOT AVBL COLUMBIA MOCLDY 57 46 66 N5 30.01R SUMTER MOCLDY 58 44 60 N6 30.00R FLORENCE CLOUDY 58 46 64 N8 30.00S MYRTLE BEACH PTCLDY 57 54 88 N7 29.97R N MYRTLE BEACH CLOUDY 58 55 90 N7 29.97R $$ GAZ063-065-086>088-099>101-113>116-118-119-134-136>141-150-301200- ...GEORGIA... CITY SKY/WX TMP DP RH WIND PRES REMARKS SAVANNAH ARPT MOCLDY 66 62 87 NW3 29.97R HUNTER AAF PTCLDY 65 64 96 NW5 29.95R FORT STEWART MOCLDY 64 61 88 NW5 29.96R STATESBORO NOT AVBL SYLVANIA MOSUNNY 65 62 90 N5 29.99R CLAXTON FAIR 63 63 100 NW5 29.98S THOMSON CLEAR 46 46 100 NW3 30.07S AUGUSTA-BUSH CLEAR 51 47 86 N7 30.00R AUGUSTA-DANIEL CLEAR 55 46 71 N9 30.01R SWAINSBORO FAIR 54 52 94 MISG 30.01S VIDALIA PTCLDY 57 52 82 CALM 30.00R ALMA CLOUDY 62 53 72 NW7 30.00R WAYCROSS CLOUDY 67 63 87 N7 29.98S JESUP FAIR 64 63 94 N6 29.98R BRUNSWICK CLEAR 63 61 94 CALM 29.98R SAINT SIMONS CLEAR 64 62 93 NW7 29.97R $$ SCZ027-028-034-036>038-045-046-048>050-GAZ119-141-301200- ...LAKE AND SUPPLEMENTAL COASTAL OBSERVATIONS... STATION/POSITION TIME TEMP WIND PRES WAVE SWELL AIR SEA DIR/SP/G HT/PER HT/PER/DIR (UTC) (F) (DEG/KT/KT) (MB) (FT/S) (FT/S/D) UPR LAKE MARION NOT AVBL WINYAH BAY 1000 59 10/ 6 1014.0S LAKE MURRAY 1000 57 30/ 1/ 3 1016.3R ACE BASIN NERRS 1000 65 350/ 2 1013.0F FORT PULASKI 1100 66 310/ 5/ 6 1014.7S SAPELO ISLAND NOT AVBL $$ ANZ835-935-AMZ111-154-330-350-352-354-374-450-454-472-301200- ...C-MAN AND BUOY OBSERVATIONS... STATION/POSITION TIME TEMP WIND PRES WAVE SWELL AIR SEA DIR/SP/G HT/PER HT/PER/DIR (UTC) (F) (DEG/KT/KT) (MB) (FT/S) (FT/S/D) FOLLY BEACH CMAN 1000 67 320/ 5/ 7 1014.3R BUOY 41004 1100 74 77 310/ 16/ 17 1012.9R 3/ 4 2/ 8 BUOY 41008 1100 70 74 330/ 12/ 14 1014.3R 1/ 3 5E ST. MARYS GA 1100 76 N/A 1/ 9 FRYING PAN BUOY 1100 66 72 360/ 17/ 19 1014.2R 3/ 5 BUOY 41025 1100 65 10/ 19/ 23 1013.1R 5/ 5 CAPE LOOKOUT NC 1000 60 360/ 15/ 19 1014.1R BUOY 41002 1050 75 77 230/ 10/ 12 1014.6F 2/10 2/ 90/10 BUOY 41010 1100 77 81 360/ 2/ 4 1014.6S 3/ 7 3/110/ 7 BUOY 41012 NOT AVBL ST AUGUSTINE FL 1100 65 260/ 5/ 6 1015.4R CAPERS NEARSHORE 1000 69 360/ 12/ 14 N/A FRIPP NEARSHORE NOT AVBL $$

USA.gov is the U.S. government's official web portal to all federal, state and local government web resources and services.